Location: Ladrillo (historical)
(32.8195°N, 117.2231°W)
Time: 16:16:42
(UTC+00:00)

X-37B - Visible Passes

Search period start: 30 November 2021 00:00
Search period end: 10 December 2021 00:00
Orbit: 330 x 341 km, 45.0° (Epoch: 20 November)

Date Brightness Start Highest point End Pass type
(mag) Time Alt. Az. Time Alt. Az. Time Alt. Az.
03 Dec 2.4 02:16:32 10° SSW 02:17:54 20° S 02:17:54 20° S visible
04 Dec 2.7 02:36:29 10° WSW 02:37:48 24° WSW 02:37:48 24° WSW visible
05 Dec 1.7 01:21:59 10° SSW 01:24:26 26° SE 01:26:24 13° E visible
05 Dec 3.9 02:57:24 10° W 02:57:38 12° W 02:57:38 12° W visible
06 Dec 0.3 01:41:55 10° WSW 01:44:46 81° NW 01:46:10 27° NE visible
07 Dec 1.9 02:02:48 10° W 02:05:18 26° NNW 02:05:51 24° N visible
08 Dec 3.1 02:24:28 10° NW 02:25:30 13° NNW 02:25:30 13° NNW visible
09 Dec 1.9 01:08:13 10° W 01:10:44 27° NNW 01:13:14 10° NE visible
